Вернуться в каталог

NANKEDA-1

АктивенНаукаSSO
NORAD 64049·PAYLOAD·🇨🇳 China
Это название спутника еще не подтверждено официальными источниками.

Запущен May 17, 2025 с Jiuquan Satellite Launch Center

Loading…

Ближайшие Пролёты (ближайшие 24 часа)

TLE

СвежийSource: Space-Track

Эпоха: Sep 14, 2026, 15:08 UTC

1 64049U 25103B   26257.63119590  .00002710  00000-0  12795-3 0  9997
2 64049  97.3718 327.5376 0001220 176.4970 183.6274 15.20278166 73652

Отслеживайте NANKEDA-1 в реальном времени с AllMySat

Download on the App Store